contact:dominique.lefevre@mio.osupytheas.fr, maurice.libes@osupytheas.fr, didier.mallarino@osupytheas.fr
Project:EMSO http://www.emso-fr.org/EMSO-France
Depth: 2436.0 m
Title:EMSO Ligure Ouest : Data MII capteur MICROCAT
DateTime_Computer,Latitude,Longitude,Temperature,Conductivity,Pressure,DateTime_Instrument
DateTime_Computer,Latitude,Longitude,degC,S m-1,dbar,DateTime_Instrument
2022-08-02T00:02:11Z,42.805,6.029,13.3013,4.60064,2470.67,2022-8-02T02:03:59Z
2022-08-02T00:05:14Z,42.805,6.029,13.3009,4.60067,2470.684,2022-8-02T02:07:02Z
2022-08-02T00:08:17Z,42.805,6.029,13.3015,4.60063,2470.67,2022-8-02T02:10:05Z
2022-08-02T00:11:20Z,42.805,6.029,13.3011,4.60061,2470.637,2022-8-02T02:13:08Z
2022-08-02T00:14:24Z,42.805,6.029,13.3019,4.60063,2470.646,2022-8-02T02:16:12Z
2022-08-02T00:17:27Z,42.805,6.029,13.3013,4.60061,2470.646,2022-8-02T02:19:15Z
2022-08-02T00:20:30Z,42.805,6.029,13.3018,4.60064,2470.67,2022-8-02T02:22:18Z
2022-08-02T00:23:33Z,42.805,6.029,13.3014,4.60060,2470.661,2022-8-02T02:25:21Z
2022-08-02T00:26:36Z,42.805,6.029,13.3014,4.60067,2470.646,2022-8-02T02:28:24Z
2022-08-02T00:29:39Z,42.805,6.029,13.3013,4.60069,2470.646,2022-8-02T02:31:27Z
2022-08-02T00:32:42Z,42.805,6.029,13.3021,4.60077,2470.67,2022-8-02T02:34:30Z
2022-08-02T00:35:45Z,42.805,6.029,13.3019,4.60067,2470.624,2022-8-02T02:37:33Z
2022-08-02T00:38:48Z,42.805,6.029,13.3019,4.60063,2470.624,2022-8-02T02:40:36Z
2022-08-02T00:41:52Z,42.805,6.029,13.3016,4.60067,2470.646,2022-8-02T02:43:40Z
2022-08-02T00:44:55Z,42.805,6.029,13.3015,4.60059,2470.624,2022-8-02T02:46:43Z
2022-08-02T00:47:58Z,42.805,6.029,13.3007,4.60064,2470.624,2022-8-02T02:49:46Z
2022-08-02T00:51:01Z,42.805,6.029,13.3016,4.60058,2470.624,2022-8-02T02:52:49Z
2022-08-02T00:54:04Z,42.805,6.029,13.3021,4.60057,2470.624,2022-8-02T02:55:52Z
2022-08-02T00:57:07Z,42.805,6.029,13.3015,4.60066,2470.646,2022-8-02T02:58:55Z
2022-08-02T01:00:10Z,42.805,6.029,13.3021,4.60066,2470.624,2022-8-02T03:01:58Z
2022-08-02T01:03:13Z,42.805,6.029,13.3017,4.60079,2470.614,2022-8-02T03:05:01Z
2022-08-02T01:06:17Z,42.805,6.029,13.3011,4.60060,2470.624,2022-8-02T03:08:05Z
2022-08-02T01:09:20Z,42.805,6.029,13.3020,4.60068,2470.646,2022-8-02T03:11:08Z
2022-08-02T01:12:23Z,42.805,6.029,13.3014,4.60067,2470.646,2022-8-02T03:14:11Z
2022-08-02T01:15:26Z,42.805,6.029,13.3017,4.60066,2470.577,2022-8-02T03:17:14Z
2022-08-02T01:18:29Z,42.805,6.029,13.3015,4.60063,2470.646,2022-8-02T03:20:17Z
2022-08-02T01:21:32Z,42.805,6.029,13.3016,4.60059,2470.624,2022-8-02T03:23:20Z
2022-08-02T01:24:35Z,42.805,6.029,13.3017,4.60067,2470.614,2022-8-02T03:26:23Z
2022-08-02T01:27:38Z,42.805,6.029,13.3014,4.60057,2470.614,2022-8-02T03:29:26Z
2022-08-02T01:30:41Z,42.805,6.029,13.3014,4.60064,2470.6,2022-8-02T03:32:29Z
2022-08-02T01:33:45Z,42.805,6.029,13.3016,4.60062,2470.637,2022-8-02T03:35:33Z
2022-08-02T01:36:48Z,42.805,6.029,13.3011,4.60067,2470.614,2022-8-02T03:38:36Z
2022-08-02T01:39:51Z,42.805,6.029,13.3019,4.60065,2470.577,2022-8-02T03:41:39Z
2022-08-02T01:42:54Z,42.805,6.029,13.3019,4.60059,2470.624,2022-8-02T03:44:42Z
2022-08-02T01:45:57Z,42.805,6.029,13.3012,4.60068,2470.614,2022-8-02T03:47:45Z
2022-08-02T01:49:00Z,42.805,6.029,13.3018,4.60062,2470.553,2022-8-02T03:50:48Z
2022-08-02T01:52:03Z,42.805,6.029,13.3014,4.60071,2470.6,2022-8-02T03:53:51Z
2022-08-02T01:55:06Z,42.805,6.029,13.3013,4.60067,2470.577,2022-8-02T03:56:54Z
2022-08-02T01:58:10Z,42.805,6.029,13.3012,4.60072,2470.591,2022-8-02T03:59:58Z
2022-08-02T02:01:13Z,42.805,6.029,13.3013,4.60061,2470.6,2022-8-02T04:03:01Z
2022-08-02T02:04:16Z,42.805,6.029,13.3014,4.60062,2470.591,2022-8-02T04:06:04Z
2022-08-02T02:07:19Z,42.805,6.029,13.3016,4.60058,2470.567,2022-8-02T04:09:07Z
2022-08-02T02:10:22Z,42.805,6.029,13.3015,4.60067,2470.577,2022-8-02T04:12:10Z
2022-08-02T02:13:25Z,42.805,6.029,13.3014,4.60059,2470.591,2022-8-02T04:15:13Z
2022-08-02T02:16:28Z,42.805,6.029,13.3019,4.60067,2470.577,2022-8-02T04:18:16Z
2022-08-02T02:19:31Z,42.805,6.029,13.3014,4.60069,2470.577,2022-8-02T04:21:19Z
2022-08-02T02:22:34Z,42.805,6.029,13.3017,4.60061,2470.591,2022-8-02T04:24:22Z
2022-08-02T02:25:38Z,42.805,6.029,13.3022,4.60064,2470.553,2022-8-02T04:27:26Z
2022-08-02T02:28:41Z,42.805,6.029,13.3016,4.60052,2470.553,2022-8-02T04:30:29Z
2022-08-02T02:31:44Z,42.805,6.029,13.3010,4.60053,2470.567,2022-8-02T04:33:32Z
2022-08-02T02:34:47Z,42.805,6.029,13.3018,4.60069,2470.577,2022-8-02T04:36:35Z
2022-08-02T02:37:50Z,42.805,6.029,13.3014,4.60062,2470.553,2022-8-02T04:39:38Z
2022-08-02T02:40:53Z,42.805,6.029,13.3014,4.60054,2470.577,2022-8-02T04:42:41Z
2022-08-02T02:43:56Z,42.805,6.029,13.3015,4.60069,2470.553,2022-8-02T04:45:44Z
2022-08-02T02:46:59Z,42.805,6.029,13.3019,4.60069,2470.553,2022-8-02T04:48:47Z
2022-08-02T02:50:03Z,42.805,6.029,13.3018,4.60066,2470.553,2022-8-02T04:51:51Z
2022-08-02T02:53:06Z,42.805,6.029,13.3016,4.60067,2470.544,2022-8-02T04:54:54Z
2022-08-02T02:56:09Z,42.805,6.029,13.3015,4.60063,2470.553,2022-8-02T04:57:57Z
2022-08-02T02:59:12Z,42.805,6.029,13.3011,4.60055,2470.577,2022-8-02T05:01:00Z
2022-08-02T03:02:15Z,42.805,6.029,13.3011,4.60056,2470.567,2022-8-02T05:04:03Z
2022-08-02T03:05:18Z,42.805,6.029,13.3014,4.60061,2470.567,2022-8-02T05:07:06Z
2022-08-02T03:08:21Z,42.805,6.029,13.3013,4.60056,2470.53,2022-8-02T05:10:09Z
2022-08-02T03:11:24Z,42.805,6.029,13.3015,4.60062,2470.52,2022-8-02T05:13:12Z
2022-08-02T03:14:27Z,42.805,6.029,13.3011,4.60064,2470.553,2022-8-02T05:16:15Z
2022-08-02T03:17:31Z,42.805,6.029,13.3017,4.60067,2470.544,2022-8-02T05:19:19Z
2022-08-02T03:20:34Z,42.805,6.029,13.3013,4.60062,2470.507,2022-8-02T05:22:22Z
2022-08-02T03:23:37Z,42.805,6.029,13.3015,4.60057,2470.553,2022-8-02T05:25:25Z
2022-08-02T03:26:40Z,42.805,6.029,13.3012,4.60068,2470.53,2022-8-02T05:28:28Z
2022-08-02T03:29:43Z,42.805,6.029,13.3015,4.60058,2470.544,2022-8-02T05:31:31Z
2022-08-02T03:32:46Z,42.805,6.029,13.3014,4.60059,2470.53,2022-8-02T05:34:34Z
2022-08-02T03:35:49Z,42.805,6.029,13.3019,4.60064,2470.483,2022-8-02T05:37:37Z
2022-08-02T03:38:52Z,42.805,6.029,13.3015,4.60071,2470.544,2022-8-02T05:40:40Z
2022-08-02T03:41:55Z,42.805,6.029,13.3018,4.60071,2470.507,2022-8-02T05:43:43Z
2022-08-02T03:44:59Z,42.805,6.029,13.3016,4.60064,2470.544,2022-8-02T05:46:47Z
2022-08-02T03:48:02Z,42.805,6.029,13.3014,4.60066,2470.483,2022-8-02T05:49:50Z
2022-08-02T03:51:05Z,42.805,6.029,13.3009,4.60057,2470.507,2022-8-02T05:52:53Z
2022-08-02T03:54:08Z,42.805,6.029,13.3011,4.60059,2470.507,2022-8-02T05:55:56Z
2022-08-02T03:57:11Z,42.805,6.029,13.3012,4.60064,2470.507,2022-8-02T05:58:59Z
2022-08-02T04:00:14Z,42.805,6.029,13.3014,4.60067,2470.507,2022-8-02T06:02:02Z
2022-08-02T04:03:17Z,42.805,6.029,13.3014,4.60074,2470.507,2022-8-02T06:05:05Z
2022-08-02T04:06:20Z,42.805,6.029,13.3018,4.60064,2470.507,2022-8-02T06:08:08Z
2022-08-02T04:09:24Z,42.805,6.029,13.3013,4.60063,2470.52,2022-8-02T06:11:12Z
2022-08-02T04:12:27Z,42.805,6.029,13.3011,4.60062,2470.483,2022-8-02T06:14:15Z
2022-08-02T04:15:30Z,42.805,6.029,13.3016,4.60062,2470.52,2022-8-02T06:17:18Z
2022-08-02T04:18:33Z,42.805,6.029,13.3014,4.60059,2470.544,2022-8-02T06:20:21Z
2022-08-02T04:21:36Z,42.805,6.029,13.3014,4.60055,2470.483,2022-8-02T06:23:24Z
2022-08-02T04:24:39Z,42.805,6.029,13.3015,4.60060,2470.507,2022-8-02T06:26:27Z
2022-08-02T04:27:42Z,42.805,6.029,13.3011,4.60052,2470.46,2022-8-02T06:29:30Z
2022-08-02T04:30:45Z,42.805,6.029,13.3018,4.60072,2470.507,2022-8-02T06:32:33Z
2022-08-02T04:33:48Z,42.805,6.029,13.3020,4.60064,2470.544,2022-8-02T06:35:36Z
2022-08-02T04:36:52Z,42.805,6.029,13.3016,4.60059,2470.483,2022-8-02T06:38:40Z
2022-08-02T04:39:55Z,42.805,6.029,13.3017,4.60059,2470.52,2022-8-02T06:41:43Z
2022-08-02T04:42:58Z,42.805,6.029,13.3014,4.60060,2470.507,2022-8-02T06:44:46Z
2022-08-02T04:46:01Z,42.805,6.029,13.3012,4.60069,2470.46,2022-8-02T06:47:49Z
2022-08-02T04:49:04Z,42.805,6.029,13.3017,4.60066,2470.52,2022-8-02T06:50:52Z
2022-08-02T04:52:07Z,42.805,6.029,13.3011,4.60061,2470.483,2022-8-02T06:53:55Z
2022-08-02T04:55:10Z,42.805,6.029,13.3015,4.60056,2470.497,2022-8-02T06:56:58Z
2022-08-02T04:58:13Z,42.805,6.029,13.3014,4.60054,2470.507,2022-8-02T07:00:01Z
2022-08-02T05:01:16Z,42.805,6.029,13.3014,4.60066,2470.46,2022-8-02T07:03:05Z
2022-08-02T05:04:20Z,42.805,6.029,13.3015,4.60064,2470.483,2022-8-02T07:06:08Z
2022-08-02T05:07:23Z,42.805,6.029,13.3018,4.60068,2470.52,2022-8-02T07:09:11Z
2022-08-02T05:10:26Z,42.805,6.029,13.3020,4.60063,2470.483,2022-8-02T07:12:14Z
2022-08-02T05:13:29Z,42.805,6.029,13.3014,4.60061,2470.544,2022-8-02T07:15:17Z
2022-08-02T05:16:32Z,42.805,6.029,13.3019,4.60063,2470.497,2022-8-02T07:18:20Z
2022-08-02T05:19:35Z,42.805,6.029,13.3009,4.60052,2470.507,2022-8-02T07:21:23Z
2022-08-02T05:22:38Z,42.805,6.029,13.3011,4.60062,2470.507,2022-8-02T07:24:26Z
2022-08-02T05:25:41Z,42.805,6.029,13.3010,4.60057,2470.483,2022-8-02T07:27:29Z
2022-08-02T05:28:45Z,42.805,6.029,13.3014,4.60064,2470.497,2022-8-02T07:30:33Z
2022-08-02T05:31:48Z,42.805,6.029,13.3014,4.60060,2470.47,2022-8-02T07:33:36Z
2022-08-02T05:34:51Z,42.805,6.029,13.3019,4.60058,2470.483,2022-8-02T07:36:39Z
2022-08-02T05:37:54Z,42.805,6.029,13.3012,4.60057,2470.483,2022-8-02T07:39:42Z
2022-08-02T05:40:57Z,42.805,6.029,13.3015,4.60066,2470.507,2022-8-02T07:42:45Z
2022-08-02T05:44:00Z,42.805,6.029,13.3014,4.60060,2470.483,2022-8-02T07:45:48Z
2022-08-02T05:47:03Z,42.805,6.029,13.3012,4.60058,2470.497,2022-8-02T07:48:51Z
2022-08-02T05:50:06Z,42.805,6.029,13.3014,4.60067,2470.507,2022-8-02T07:51:54Z
2022-08-02T05:53:09Z,42.805,6.029,13.3016,4.60073,2470.507,2022-8-02T07:54:57Z
2022-08-02T05:56:13Z,42.805,6.029,13.3018,4.60074,2470.52,2022-8-02T07:58:01Z
2022-08-02T05:59:16Z,42.805,6.029,13.3017,4.60065,2470.47,2022-8-02T08:01:04Z
2022-08-02T06:02:19Z,42.805,6.029,13.3015,4.60062,2470.52,2022-8-02T08:04:07Z
2022-08-02T06:05:22Z,42.805,6.029,13.3012,4.60063,2470.46,2022-8-02T08:07:10Z
2022-08-02T06:08:25Z,42.805,6.029,13.3015,4.60061,2470.507,2022-8-02T08:10:13Z
2022-08-02T06:11:28Z,42.805,6.029,13.3016,4.60058,2470.544,2022-8-02T08:13:16Z
2022-08-02T06:14:31Z,42.805,6.029,13.3018,4.60069,2470.483,2022-8-02T08:16:19Z
2022-08-02T06:17:34Z,42.805,6.029,13.3019,4.60070,2470.52,2022-8-02T08:19:22Z
2022-08-02T06:20:37Z,42.805,6.029,13.3016,4.60064,2470.544,2022-8-02T08:22:26Z
2022-08-02T06:23:41Z,42.805,6.029,13.3018,4.60062,2470.567,2022-8-02T08:25:29Z
2022-08-02T06:26:44Z,42.805,6.029,13.3012,4.60060,2470.507,2022-8-02T08:28:32Z
2022-08-02T06:29:47Z,42.805,6.029,13.3014,4.60064,2470.483,2022-8-02T08:31:35Z
2022-08-02T06:32:50Z,42.805,6.029,13.3018,4.60061,2470.507,2022-8-02T08:34:38Z
2022-08-02T06:35:53Z,42.805,6.029,13.3011,4.60057,2470.507,2022-8-02T08:37:41Z
2022-08-02T06:38:56Z,42.805,6.029,13.3012,4.60063,2470.507,2022-8-02T08:40:44Z
2022-08-02T06:41:59Z,42.805,6.029,13.3019,4.60064,2470.507,2022-8-02T08:43:47Z
2022-08-02T06:45:02Z,42.805,6.029,13.3015,4.60062,2470.53,2022-8-02T08:46:50Z
2022-08-02T06:48:06Z,42.805,6.029,13.3019,4.60062,2470.544,2022-8-02T08:49:54Z
2022-08-02T06:51:09Z,42.805,6.029,13.3014,4.60059,2470.507,2022-8-02T08:52:57Z
2022-08-02T06:54:12Z,42.805,6.029,13.3015,4.60061,2470.53,2022-8-02T08:56:00Z
2022-08-02T06:57:15Z,42.805,6.029,13.3015,4.60064,2470.53,2022-8-02T08:59:03Z
2022-08-02T07:00:18Z,42.805,6.029,13.3020,4.60068,2470.53,2022-8-02T09:02:06Z
2022-08-02T07:03:21Z,42.805,6.029,13.3010,4.60066,2470.567,2022-8-02T09:05:09Z
2022-08-02T07:06:24Z,42.805,6.029,13.3015,4.60065,2470.53,2022-8-02T09:08:12Z
2022-08-02T07:09:27Z,42.805,6.029,13.3012,4.60066,2470.53,2022-8-02T09:11:15Z
2022-08-02T07:12:30Z,42.805,6.029,13.3013,4.60067,2470.53,2022-8-02T09:14:19Z
2022-08-02T07:15:34Z,42.805,6.029,13.3012,4.60057,2470.52,2022-8-02T09:17:22Z
2022-08-02T07:18:37Z,42.805,6.029,13.3015,4.60066,2470.53,2022-8-02T09:20:25Z
2022-08-02T07:21:40Z,42.805,6.029,13.3012,4.60059,2470.52,2022-8-02T09:23:28Z
2022-08-02T07:24:43Z,42.805,6.029,13.3009,4.60063,2470.53,2022-8-02T09:26:31Z
2022-08-02T07:27:46Z,42.805,6.029,13.3017,4.60062,2470.553,2022-8-02T09:29:34Z
2022-08-02T07:30:49Z,42.805,6.029,13.3014,4.60063,2470.544,2022-8-02T09:32:37Z
2022-08-02T07:33:52Z,42.805,6.029,13.3014,4.60057,2470.567,2022-8-02T09:35:40Z
2022-08-02T07:36:55Z,42.805,6.029,13.3019,4.60067,2470.544,2022-8-02T09:38:43Z
2022-08-02T07:39:59Z,42.805,6.029,13.3012,4.60067,2470.553,2022-8-02T09:41:47Z
2022-08-02T07:43:02Z,42.805,6.029,13.3010,4.60058,2470.544,2022-8-02T09:44:50Z
2022-08-02T07:46:05Z,42.805,6.029,13.3013,4.60066,2470.544,2022-8-02T09:47:53Z
2022-08-02T07:49:08Z,42.805,6.029,13.3014,4.60064,2470.577,2022-8-02T09:50:56Z
2022-08-02T07:52:11Z,42.805,6.029,13.3012,4.60061,2470.567,2022-8-02T09:53:59Z
2022-08-02T07:55:14Z,42.805,6.029,13.3017,4.60063,2470.591,2022-8-02T09:57:02Z
2022-08-02T07:58:17Z,42.805,6.029,13.3015,4.60058,2470.553,2022-8-02T10:00:05Z
2022-08-02T08:01:20Z,42.805,6.029,13.3016,4.60064,2470.577,2022-8-02T10:03:08Z
2022-08-02T08:04:23Z,42.805,6.029,13.3012,4.60066,2470.591,2022-8-02T10:06:11Z
2022-08-02T08:07:27Z,42.805,6.029,13.3012,4.60065,2470.507,2022-8-02T10:09:15Z
2022-08-02T08:10:30Z,42.805,6.029,13.3016,4.60060,2470.567,2022-8-02T10:12:18Z
2022-08-02T08:13:33Z,42.805,6.029,13.3015,4.60060,2470.53,2022-8-02T10:15:21Z
2022-08-02T08:16:36Z,42.805,6.029,13.3014,4.60060,2470.577,2022-8-02T10:18:24Z
2022-08-02T08:19:39Z,42.805,6.029,13.3017,4.60066,2470.553,2022-8-02T10:21:27Z
2022-08-02T08:22:42Z,42.805,6.029,13.3015,4.60062,2470.553,2022-8-02T10:24:30Z
2022-08-02T08:25:45Z,42.805,6.029,13.3013,4.60069,2470.544,2022-8-02T10:27:33Z
2022-08-02T08:28:48Z,42.805,6.029,13.3015,4.60063,2470.553,2022-8-02T10:30:36Z
2022-08-02T08:31:52Z,42.805,6.029,13.3015,4.60069,2470.577,2022-8-02T10:33:40Z
2022-08-02T08:34:55Z,42.805,6.029,13.3009,4.60062,2470.6,2022-8-02T10:36:43Z
2022-08-02T08:37:58Z,42.805,6.029,13.3014,4.60062,2470.591,2022-8-02T10:39:46Z
2022-08-02T08:41:01Z,42.805,6.029,13.3014,4.60062,2470.577,2022-8-02T10:42:49Z
2022-08-02T08:44:04Z,42.805,6.029,13.3015,4.60068,2470.614,2022-8-02T10:45:52Z
2022-08-02T08:47:07Z,42.805,6.029,13.3017,4.60062,2470.553,2022-8-02T10:48:55Z
2022-08-02T08:50:10Z,42.805,6.029,13.3017,4.60069,2470.591,2022-8-02T10:51:58Z
2022-08-02T08:53:13Z,42.805,6.029,13.3014,4.60066,2470.577,2022-8-02T10:55:01Z
2022-08-02T08:56:17Z,42.805,6.029,13.3015,4.60066,2470.553,2022-8-02T10:58:05Z
2022-08-02T08:59:20Z,42.805,6.029,13.3017,4.60075,2470.591,2022-8-02T11:01:08Z
2022-08-02T09:02:23Z,42.805,6.029,13.3014,4.60066,2470.577,2022-8-02T11:04:11Z
2022-08-02T09:05:26Z,42.805,6.029,13.3018,4.60061,2470.6,2022-8-02T11:07:14Z
2022-08-02T09:08:29Z,42.805,6.029,13.3015,4.60060,2470.614,2022-8-02T11:10:17Z
2022-08-02T09:11:32Z,42.805,6.029,13.3015,4.60058,2470.591,2022-8-02T11:13:20Z
2022-08-02T09:14:35Z,42.805,6.029,13.3014,4.60066,2470.577,2022-8-02T11:16:23Z
2022-08-02T09:17:38Z,42.805,6.029,13.3015,4.60064,2470.6,2022-8-02T11:19:26Z
2022-08-02T09:20:42Z,42.805,6.029,13.3011,4.60070,2470.553,2022-8-02T11:22:30Z
2022-08-02T09:23:45Z,42.805,6.029,13.3014,4.60057,2470.6,2022-8-02T11:25:33Z
2022-08-02T09:26:48Z,42.805,6.029,13.3015,4.60069,2470.553,2022-8-02T11:28:36Z
2022-08-02T09:29:51Z,42.805,6.029,13.3013,4.60062,2470.577,2022-8-02T11:31:39Z
2022-08-02T09:32:54Z,42.805,6.029,13.3014,4.60061,2470.614,2022-8-02T11:34:42Z
2022-08-02T09:35:57Z,42.805,6.029,13.3019,4.60067,2470.553,2022-8-02T11:37:45Z
2022-08-02T09:39:00Z,42.805,6.029,13.3014,4.60066,2470.577,2022-8-02T11:40:48Z
2022-08-02T09:42:03Z,42.805,6.029,13.3011,4.60054,2470.591,2022-8-02T11:43:51Z
2022-08-02T09:45:06Z,42.805,6.029,13.3014,4.60067,2470.6,2022-8-02T11:46:55Z
2022-08-02T09:48:10Z,42.805,6.029,13.3017,4.60063,2470.6,2022-8-02T11:49:58Z
2022-08-02T09:51:13Z,42.805,6.029,13.3018,4.60066,2470.577,2022-8-02T11:53:01Z
2022-08-02T09:54:16Z,42.805,6.029,13.3014,4.60062,2470.591,2022-8-02T11:56:04Z
2022-08-02T09:57:19Z,42.805,6.029,13.3018,4.60068,2470.614,2022-8-02T11:59:07Z
2022-08-02T10:00:22Z,42.805,6.029,13.3017,4.60059,2470.577,2022-8-02T12:02:10Z
2022-08-02T10:03:25Z,42.805,6.029,13.3015,4.60061,2470.614,2022-8-02T12:05:13Z
2022-08-02T10:06:28Z,42.805,6.029,13.3015,4.60069,2470.577,2022-8-02T12:08:16Z
2022-08-02T10:09:31Z,42.805,6.029,13.3016,4.60066,2470.553,2022-8-02T12:11:19Z
2022-08-02T10:12:35Z,42.805,6.029,13.3019,4.60061,2470.553,2022-8-02T12:14:23Z
2022-08-02T10:15:38Z,42.805,6.029,13.3011,4.60058,2470.591,2022-8-02T12:17:26Z
2022-08-02T10:18:41Z,42.805,6.029,13.3015,4.60068,2470.553,2022-8-02T12:20:29Z
2022-08-02T10:21:44Z,42.805,6.029,13.3020,4.60067,2470.591,2022-8-02T12:23:32Z
2022-08-02T10:24:47Z,42.805,6.029,13.3015,4.60059,2470.577,2022-8-02T12:26:35Z
2022-08-02T10:27:50Z,42.805,6.029,13.3014,4.60062,2470.577,2022-8-02T12:29:38Z
2022-08-02T10:30:53Z,42.805,6.029,13.3014,4.60058,2470.577,2022-8-02T12:32:41Z
2022-08-02T10:33:56Z,42.805,6.029,13.3015,4.60064,2470.591,2022-8-02T12:35:44Z
2022-08-02T10:37:00Z,42.805,6.029,13.3015,4.60059,2470.553,2022-8-02T12:38:48Z
2022-08-02T10:40:03Z,42.805,6.029,13.3014,4.60071,2470.53,2022-8-02T12:41:51Z
2022-08-02T10:43:06Z,42.805,6.029,13.3012,4.60063,2470.553,2022-8-02T12:44:54Z
2022-08-02T10:46:09Z,42.805,6.029,13.3014,4.60062,2470.553,2022-8-02T12:47:57Z
2022-08-02T10:49:12Z,42.805,6.029,13.3015,4.60065,2470.544,2022-8-02T12:51:00Z
2022-08-02T10:52:15Z,42.805,6.029,13.3019,4.60067,2470.577,2022-8-02T12:54:03Z
2022-08-02T10:55:18Z,42.805,6.029,13.3021,4.60062,2470.591,2022-8-02T12:57:06Z
2022-08-02T10:58:21Z,42.805,6.029,13.3018,4.60076,2470.567,2022-8-02T13:00:09Z
2022-08-02T11:01:25Z,42.805,6.029,13.3015,4.60068,2470.577,2022-8-02T13:03:13Z
2022-08-02T11:04:28Z,42.805,6.029,13.3019,4.60071,2470.553,2022-8-02T13:06:16Z
2022-08-02T11:07:31Z,42.805,6.029,13.3016,4.60058,2470.53,2022-8-02T13:09:19Z
2022-08-02T11:10:34Z,42.805,6.029,13.3011,4.60062,2470.553,2022-8-02T13:12:22Z
2022-08-02T11:13:37Z,42.805,6.029,13.3015,4.60058,2470.53,2022-8-02T13:15:25Z
2022-08-02T11:16:40Z,42.805,6.029,13.3019,4.60064,2470.539,2022-8-02T13:18:28Z
2022-08-02T11:19:43Z,42.805,6.029,13.3018,4.60060,2470.53,2022-8-02T13:21:31Z
2022-08-02T11:22:46Z,42.805,6.029,13.3013,4.60056,2470.544,2022-8-02T13:24:34Z
2022-08-02T11:25:50Z,42.805,6.029,13.3016,4.60064,2470.544,2022-8-02T13:27:38Z
2022-08-02T11:28:53Z,42.805,6.029,13.3016,4.60067,2470.507,2022-8-02T13:30:41Z
2022-08-02T11:31:56Z,42.805,6.029,13.3011,4.60069,2470.507,2022-8-02T13:33:44Z
2022-08-02T11:34:59Z,42.805,6.029,13.3014,4.60066,2470.507,2022-8-02T13:36:47Z
2022-08-02T11:38:02Z,42.805,6.029,13.3014,4.60062,2470.53,2022-8-02T13:39:50Z
2022-08-02T11:41:05Z,42.805,6.029,13.3019,4.60064,2470.53,2022-8-02T13:42:53Z
2022-08-02T11:44:08Z,42.805,6.029,13.3012,4.60055,2470.553,2022-8-02T13:45:56Z
2022-08-02T11:47:11Z,42.805,6.029,13.3015,4.60074,2470.53,2022-8-02T13:48:59Z
2022-08-02T11:50:14Z,42.805,6.029,13.3011,4.60067,2470.507,2022-8-02T13:52:03Z
2022-08-02T11:53:18Z,42.805,6.029,13.3011,4.60063,2470.507,2022-8-02T13:55:06Z
2022-08-02T11:56:21Z,42.805,6.029,13.3015,4.60060,2470.493,2022-8-02T13:58:09Z
2022-08-02T11:59:24Z,42.805,6.029,13.3018,4.60064,2470.497,2022-8-02T14:01:12Z
2022-08-02T12:02:27Z,42.805,6.029,13.3014,4.60062,2470.507,2022-8-02T14:04:15Z
2022-08-02T12:05:30Z,42.805,6.029,13.3014,4.60066,2470.52,2022-8-02T14:07:18Z
2022-08-02T12:08:33Z,42.805,6.029,13.3016,4.60057,2470.52,2022-8-02T14:10:21Z
2022-08-02T12:11:36Z,42.805,6.029,13.3019,4.60064,2470.507,2022-8-02T14:13:24Z
2022-08-02T12:14:39Z,42.805,6.029,13.3016,4.60058,2470.507,2022-8-02T14:16:28Z
2022-08-02T12:17:43Z,42.805,6.029,13.3014,4.60056,2470.46,2022-8-02T14:19:31Z
2022-08-02T12:20:46Z,42.805,6.029,13.3014,4.60052,2470.507,2022-8-02T14:22:34Z
2022-08-02T12:23:49Z,42.805,6.029,13.3016,4.60059,2470.52,2022-8-02T14:25:37Z
2022-08-02T12:26:52Z,42.805,6.029,13.3019,4.60060,2470.483,2022-8-02T14:28:40Z
2022-08-02T12:29:55Z,42.805,6.029,13.3020,4.60059,2470.497,2022-8-02T14:31:43Z
2022-08-02T12:32:58Z,42.805,6.029,13.3012,4.60067,2470.52,2022-8-02T14:34:46Z
2022-08-02T12:36:01Z,42.805,6.029,13.3015,4.60064,2470.483,2022-8-02T14:37:49Z
2022-08-02T12:39:04Z,42.805,6.029,13.3014,4.60064,2470.507,2022-8-02T14:40:52Z
2022-08-02T12:42:08Z,42.805,6.029,13.3011,4.60059,2470.483,2022-8-02T14:43:56Z
2022-08-02T12:45:11Z,42.805,6.029,13.3010,4.60054,2470.46,2022-8-02T14:46:59Z
2022-08-02T12:48:14Z,42.805,6.029,13.3016,4.60058,2470.497,2022-8-02T14:50:02Z
2022-08-02T12:51:17Z,42.805,6.029,13.3014,4.60054,2470.474,2022-8-02T14:53:05Z
2022-08-02T12:54:20Z,42.805,6.029,13.3016,4.60066,2470.507,2022-8-02T14:56:08Z
2022-08-02T12:57:23Z,42.805,6.029,13.3011,4.60059,2470.45,2022-8-02T14:59:11Z
2022-08-02T13:00:26Z,42.805,6.029,13.3014,4.60061,2470.474,2022-8-02T15:02:14Z
2022-08-02T13:03:29Z,42.805,6.029,13.3018,4.60065,2470.497,2022-8-02T15:05:17Z
2022-08-02T13:06:33Z,42.805,6.029,13.3012,4.60061,2470.46,2022-8-02T15:08:21Z
2022-08-02T13:09:36Z,42.805,6.029,13.3015,4.60069,2470.46,2022-8-02T15:11:24Z
2022-08-02T13:12:39Z,42.805,6.029,13.3014,4.60065,2470.474,2022-8-02T15:14:27Z
2022-08-02T13:15:42Z,42.805,6.029,13.3015,4.60054,2470.437,2022-8-02T15:17:30Z
2022-08-02T13:18:45Z,42.805,6.029,13.3015,4.60062,2470.46,2022-8-02T15:20:33Z
2022-08-02T13:21:48Z,42.805,6.029,13.3014,4.60062,2470.483,2022-8-02T15:23:36Z
2022-08-02T13:24:51Z,42.805,6.029,13.3016,4.60056,2470.46,2022-8-02T15:26:39Z
2022-08-02T13:27:54Z,42.805,6.029,13.3019,4.60069,2470.437,2022-8-02T15:29:42Z
2022-08-02T13:30:57Z,42.805,6.029,13.3019,4.60074,2470.46,2022-8-02T15:32:46Z
2022-08-02T13:34:01Z,42.805,6.029,13.3019,4.60066,2470.46,2022-8-02T15:35:49Z
2022-08-02T13:37:04Z,42.805,6.029,13.3016,4.60068,2470.45,2022-8-02T15:38:52Z
2022-08-02T13:40:07Z,42.805,6.029,13.3016,4.60068,2470.474,2022-8-02T15:41:55Z
2022-08-02T13:43:10Z,42.805,6.029,13.3011,4.60078,2470.437,2022-8-02T15:44:58Z
2022-08-02T13:46:13Z,42.805,6.029,13.3017,4.60068,2470.437,2022-8-02T15:48:01Z
2022-08-02T13:49:16Z,42.805,6.029,13.3012,4.60058,2470.45,2022-8-02T15:51:04Z
2022-08-02T13:52:19Z,42.805,6.029,13.3014,4.60064,2470.427,2022-8-02T15:54:07Z
2022-08-02T13:55:22Z,42.805,6.029,13.3014,4.60057,2470.46,2022-8-02T15:57:11Z
2022-08-02T13:58:26Z,42.805,6.029,13.3014,4.60067,2470.46,2022-8-02T16:00:14Z
2022-08-02T14:01:29Z,42.805,6.029,13.3015,4.60069,2470.413,2022-8-02T16:03:17Z
2022-08-02T14:04:32Z,42.805,6.029,13.3017,4.60067,2470.413,2022-8-02T16:06:20Z
2022-08-02T14:07:35Z,42.805,6.029,13.3010,4.60060,2470.46,2022-8-02T16:09:23Z
2022-08-02T14:10:38Z,42.805,6.029,13.3015,4.60058,2470.413,2022-8-02T16:12:26Z
2022-08-02T14:13:41Z,42.805,6.029,13.3019,4.60064,2470.413,2022-8-02T16:15:29Z
2022-08-02T14:16:44Z,42.805,6.029,13.3012,4.60064,2470.437,2022-8-02T16:18:32Z
2022-08-02T14:19:47Z,42.805,6.029,13.3019,4.60069,2470.437,2022-8-02T16:21:35Z
2022-08-02T14:22:51Z,42.805,6.029,13.3011,4.60068,2470.413,2022-8-02T16:24:39Z
2022-08-02T14:25:54Z,42.805,6.029,13.3018,4.60066,2470.39,2022-8-02T16:27:42Z
2022-08-02T14:28:57Z,42.805,6.029,13.3019,4.60067,2470.437,2022-8-02T16:30:45Z
2022-08-02T14:32:00Z,42.805,6.029,13.3013,4.60063,2470.427,2022-8-02T16:33:48Z
2022-08-02T14:35:03Z,42.805,6.029,13.3014,4.60062,2470.413,2022-8-02T16:36:51Z
2022-08-02T14:38:06Z,42.805,6.029,13.3016,4.60069,2470.45,2022-8-02T16:39:54Z
2022-08-02T14:41:09Z,42.805,6.029,13.3018,4.60063,2470.45,2022-8-02T16:42:57Z
2022-08-02T14:44:12Z,42.805,6.029,13.3016,4.60064,2470.39,2022-8-02T16:46:00Z
2022-08-02T14:47:16Z,42.805,6.029,13.3016,4.60067,2470.413,2022-8-02T16:49:04Z
2022-08-02T14:50:19Z,42.805,6.029,13.3014,4.60061,2470.39,2022-8-02T16:52:07Z
2022-08-02T14:53:22Z,42.805,6.029,13.3014,4.60072,2470.437,2022-8-02T16:55:10Z
2022-08-02T14:56:25Z,42.805,6.029,13.3019,4.60067,2470.427,2022-8-02T16:58:13Z
2022-08-02T14:59:28Z,42.805,6.029,13.3011,4.60070,2470.39,2022-8-02T17:01:16Z
2022-08-02T15:02:31Z,42.805,6.029,13.3009,4.60061,2470.427,2022-8-02T17:04:19Z
2022-08-02T15:05:34Z,42.805,6.029,13.3014,4.60060,2470.413,2022-8-02T17:07:22Z
2022-08-02T15:08:37Z,42.805,6.029,13.3009,4.60066,2470.45,2022-8-02T17:10:25Z
2022-08-02T15:11:40Z,42.805,6.029,13.3020,4.60074,2470.427,2022-8-02T17:13:29Z